GW3558 Weather Reports


Display with metric or nautical units.
time (UTC)temp
F
wind
direction
speed
MPH
gust
MPH
rain 1hr
in
rain 24hr
in
rain mn
in
humidity
%
barometer
mb
20260504050516 59 249 3.0 5.0 0.00 0.00 0.00 34 1017.3
20260504050106 59 243 3.0 5.0 0.00 0.00 0.00 34 1017.1
20260504045516 59 230 3.0 7.0 0.00 0.00 0.00 34 1017.1
20260504045015 59 220 4.0 7.0 0.00 0.00 0.00 34 1017.1
20260504044555 59 240 4.0 6.0 0.00 0.00 0.00 33 1017.1
20260504044016 60 237 4.0 7.0 0.00 0.00 0.00 34 1017.1
20260504043515 59 246 4.0 7.0 0.00 0.00 0.00 33 1017.1
20260504043051 59 219 5.0 7.0 0.00 0.00 0.00 33 1017.0
20260504042516 60 244 4.0 8.0 0.00 0.00 0.00 33 1017.0
20260504042016 60 249 5.0 8.0 0.00 0.00 0.00 33 1016.9
20260504041551 60 244 5.0 8.0 0.00 0.00 0.00 33 1016.8
20260504041015 60 238 5.0 8.0 0.00 0.00 0.00 32 1016.8
20260504040514 61 247 5.0 8.0 0.00 0.00 0.00 32 1016.7
20260504040132 61 244 5.0 8.0 0.00 0.00 0.00 32 1016.6
20260504035515 61 238 4.0 8.0 0.00 0.00 0.00 32 1016.7
20260504035016 61 215 5.0 7.0 0.00 0.00 0.00 31 1016.6
20260504034556 61 246 5.0 8.0 0.00 0.00 0.00 31 1016.6
20260504034015 61 248 4.0 8.0 0.00 0.00 0.00 30 1016.7
20260504033516 61 254 4.0 7.0 0.00 0.00 0.00 30 1016.7
20260504033056 61 225 4.0 8.0 0.00 0.00 0.00 30 1016.6
20260504032515 61 213 4.0 8.0 0.00 0.00 0.00 30 1016.6
20260504032020 62 228 4.0 8.0 0.00 0.00 0.00 30 1016.7
20260504031601 61 229 4.0 6.0 0.00 0.00 0.00 30 1016.7
20260504031015 62 254 3.0 8.0 0.00 0.00 0.00 31 1016.7
20260504030515 62 257 3.0 8.0 0.00 0.00 0.00 31 1016.7
20260504030056 62 242 2.0 6.0 0.00 0.00 0.00 31 1016.6
20260504025518 62 281 3.0 9.0 0.00 0.00 0.00 31 1016.7
20260504025016 62 242 3.0 9.0 0.00 0.00 0.00 31 1016.8
20260504024553 63 261 2.0 5.0 0.00 0.00 0.00 31 1016.8
20260504024015 63 230 3.0 5.0 0.00 0.00 0.00 30 1016.7
20260504023515 63 242 2.0 4.0 0.00 0.00 0.00 30 1016.6
20260504023316 64 244 2.0 7.0 0.00 0.00 0.00 30 1016.6
20260504022521 64 268 2.0 7.0 0.00 0.00 0.00 30 1016.7
20260504022016 65 271 3.0 6.0 0.00 0.00 0.00 29 1016.7
20260504021551 65 248 2.0 6.0 0.00 0.00 0.00 30 1016.9
20260504021016 66 256 3.0 6.0 0.00 0.00 0.00 29 1016.8
20260504020520 66 223 2.0 7.0 0.00 0.00 0.00 29 1016.8
20260504020113 67 246 3.0 8.0 0.00 0.00 0.00 28 1017.0
20260504015520 68 239 3.0 8.0 0.00 0.00 0.00 29 1017.0
20260504015021 68 254 2.0 5.0 0.00 0.00 0.00 28 1017.1
20260504014604 68 229 1.0 4.0 0.00 0.00 0.00 29 1017.1
20260504014019 69 288 1.0 4.0 0.00 0.00 0.00 28 1017.1
20260504013519 69 261 2.0 4.0 0.00 0.00 0.00 27 1017.3
20260504013109 69 295 1.0 7.0 0.00 0.00 0.00 28 1017.3
20260504012516 69 236 1.0 7.0 0.00 0.00 0.00 28 1017.3
20260504012016 69 306 2.0 5.0 0.00 0.00 0.00 28 1017.4
20260504011611 69 196 1.0 7.0 0.00 0.00 0.00 28 1017.4
20260504011015 69 211 2.0 7.0 0.00 0.00 0.00 28 1017.4
20260504010516 68 251 3.0 6.0 0.00 0.00 0.00 27 1017.5
20260504010440 69 334 2.0 7.0 0.00 0.00 0.00 28 1017.6
20260504005521 68 227 3.0 7.0 0.00 0.00 0.00 29 1017.5
20260504005021 68 323 2.0 6.0 0.00 0.00 0.00 28 1017.5
20260504004617 68 333 1.0 5.0 0.00 0.00 0.00 29 1017.6
20260504004020 68 105 0.0 5.0 0.00 0.00 0.00 30 1017.7
20260504003523 68 72 1.0 9.0 0.00 0.00 0.00 28 1017.8
20260504003124 69 336 2.0 9.0 0.00 0.00 0.00 26 1017.9
20260504002517 69 213 1.0 4.0 0.00 0.00 0.00 27 1017.9
20260504002019 68 302 1.0 6.0 0.00 0.00 0.00 26 1017.6
20260504001550 68 220 1.0 5.0 0.00 0.00 0.00 27 1017.5
20260504001014 69 128 1.0 6.0 0.00 0.00 0.00 28 1017.9
20260504000512 69 250 2.0 6.0 0.00 0.00 0.00 25 1017.9
20260504000103 69 109 0.0 4.0 0.00 0.00 0.00 29 1018.0
20260503235517 69 341 1.0 4.0 0.00 0.00 0.00 28 1018.1
20260503235014 69 145 1.0 4.0 0.00 0.00 0.00 26 1018.1
20260503234608 68 162 1.0 4.0 0.00 0.00 0.00 29 1018.1
20260503234016 68 34 2.0 4.0 0.00 0.00 0.00 31 1018.2
20260503233517 68 92 1.0 4.0 0.00 0.00 0.00 30 1018.1
20260503233052 68 79 2.0 4.0 0.00 0.00 0.00 34 1018.3
20260503232514 68 106 1.0 4.0 0.00 0.00 0.00 35 1018.3
20260503232014 68 62 2.0 4.0 0.00 0.00 0.00 35 1018.4
20260503231555 68 169 2.0 8.0 0.00 0.00 0.00 35 1018.6
20260503231013 68 96 3.0 8.0 0.00 0.00 0.00 34 1018.6
20260503230515 68 69 1.0 4.0 0.00 0.00 0.00 34 1018.7
20260503230058 68 101 0.0 4.0 0.00 0.00 0.00 36 1018.8
20260503225515 67 103 2.0 4.0 0.00 0.00 0.00 35 1018.7
20260503225015 68 72 2.0 4.0 0.00 0.00 0.00 34 1018.8
20260503224550 68 97 2.0 7.0 0.00 0.00 0.00 33 1018.9
20260503224016 68 248 3.0 7.0 0.00 0.00 0.00 33 1019.1
20260503223517 68 109 1.0 7.0 0.00 0.00 0.00 35 1019.2
20260503223046 68 108 3.0 7.0 0.00 0.00 0.00 32 1019.2
20260503222519 68 182 3.0 6.0 0.00 0.00 0.00 35 1019.3
20260503222015 68 93 2.0 4.0 0.00 0.00 0.00 34 1019.4
20260503221554 68 49 2.0 6.0 0.00 0.00 0.00 34 1019.4
20260503221015 68 84 2.0 7.0 0.00 0.00 0.00 36 1019.4
20260503220516 68 150 2.0 7.0 0.00 0.00 0.00 34 1019.4
20260503220051 68 69 3.0 9.0 0.00 0.00 0.00 33 1019.5
20260503215516 68 84 2.0 7.0 0.00 0.00 0.00 35 1019.5
20260503215019 67 90 3.0 8.0 0.00 0.00 0.00 34 1019.6
20260503214557 67 147 2.0 8.0 0.00 0.00 0.00 34 1019.6
20260503214018 67 88 3.0 10.0 0.00 0.00 0.00 35 1019.7
20260503213515 67 155 5.0 10.0 0.00 0.00 0.00 34 1019.7
20260503213044 67 115 3.0 8.0 0.00 0.00 0.00 34 1019.8
20260503212517 68 90 3.0 9.0 0.00 0.00 0.00 35 1019.8
20260503212024 68 72 3.0 9.0 0.00 0.00 0.00 35 1019.9
20260503211548 67 64 3.0 9.0 0.00 0.00 0.00 36 1019.9
20260503211017 67 109 4.0 9.0 0.00 0.00 0.00 36 1019.9
20260503210522 67 92 3.0 9.0 0.00 0.00 0.00 34 1020.0
20260503210054 67 122 3.0 9.0 0.00 0.00 0.00 33 1020.1
20260503205520 68 112 4.0 10.0 0.00 0.00 0.00 32 1020.1
20260503205023 68 80 3.0 10.0 0.00 0.00 0.00 33 1020.2
20260503204558 67 63 3.0 8.0 0.00 0.00 0.00 36 1020.2
20260503204018 67 86 4.0 8.0 0.00 0.00 0.00 33 1020.3
20260503203520 67 90 4.0 11.0 0.00 0.00 0.00 34 1020.3
20260503203100 67 91 4.0 11.0 0.00 0.00 0.00 32 1020.4
20260503202522 67 103 4.0 9.0 0.00 0.00 0.00 34 1020.4
20260503202021 67 108 5.0 9.0 0.00 0.00 0.00 34 1020.6
20260503201558 66 91 4.0 10.0 0.00 0.00 0.00 37 1020.6
20260503201019 67 71 4.0 10.0 0.00 0.00 0.00 33 1020.6
20260503200516 66 92 4.0 9.0 0.00 0.00 0.00 34 1020.7
20260503200105 67 88 5.0 9.0 0.00 0.00 0.00 34 1020.6
20260503195514 66 86 5.0 10.0 0.00 0.00 0.00 36 1020.7
20260503195028 66 101 4.0 11.0 0.00 0.00 0.00 34 1020.7
20260503194558 66 100 6.0 12.0 0.00 0.00 0.00 33 1020.8
20260503194014 66 94 4.0 12.0 0.00 0.00 0.00 35 1020.7
20260503193512 66 138 5.0 12.0 0.00 0.00 0.00 32 1020.7
20260503193053 66 101 4.0 11.0 0.00 0.00 0.00 33 1020.8
20260503192518 66 81 4.0 11.0 0.00 0.00 0.00 33 1020.7
20260503192020 66 81 5.0 10.0 0.00 0.00 0.00 33 1020.8
20260503191555 66 98 5.0 9.0 0.00 0.00 0.00 31 1020.9
20260503191018 66 130 3.0 9.0 0.00 0.00 0.00 33 1020.9
20260503190519 66 90 5.0 9.0 0.00 0.00 0.00 30 1020.9
20260503190056 66 94 3.0 9.0 0.00 0.00 0.00 37 1021.0
20260503185508 66 98 5.0 9.0 0.00 0.00 0.00 33 1021.1
20260503185019 66 94 4.0 9.0 0.00 0.00 0.00 34 1021.1
20260503184606 66 101 4.0 8.0 0.00 0.00 0.00 34 1021.1
20260503184018 67 104 4.0 9.0 0.00 0.00 0.00 34 1021.1
20260503183522 68 62 3.0 9.0 0.00 0.00 0.00 34 1021.1
20260503183100 68 76 2.0 7.0 0.00 0.00 0.00 33 1021.5
20260503182519 67 82 3.0 7.0 0.00 0.00 0.00 35 1021.4
20260503182019 66 84 4.0 7.0 0.00 0.00 0.00 37 1021.5
20260503181552 66 86 3.0 8.0 0.00 0.00 0.00 37 1021.3
20260503181017 66 115 3.0 8.0 0.00 0.00 0.00 34 1021.4
20260503180521 67 99 4.0 8.0 0.00 0.00 0.00 37 1021.5
20260503180108 68 75 3.0 7.0 0.00 0.00 0.00 31 1021.4
20260503175520 68 69 2.0 7.0 0.00 0.00 0.00 37 1021.4
20260503175027 67 75 2.0 9.0 0.00 0.00 0.00 37 1021.4
20260503174557 67 53 3.0 9.0 0.00 0.00 0.00 33 1021.4
20260503174015 66 80 4.0 9.0 0.00 0.00 0.00 38 1021.4
20260503173517 66 80 4.0 9.0 0.00 0.00 0.00 40 1021.4
20260503173050 65 77 3.0 5.0 0.00 0.00 0.00 42 1021.4
20260503172626 65 76 1.0 8.0 0.00 0.00 0.00 44 1021.4
20260503172019 65 90 3.0 8.0 0.00 0.00 0.00 42 1021.4
20260503171017 67 107 2.0 4.0 0.00 0.00 0.00 41 1021.5
20260503170517 67 94 1.0 5.0 0.00 0.00 0.00 40 1021.5
20260503150518 59 213 1.0 4.0 0.00 0.00 0.00 44 1021.6
20260503140311 56 247 2.0 4.0 0.00 0.00 0.00 46 1021.7
20260503131020 52 263 2.0 4.0 0.00 0.00 0.00 50 1021.4
20260503130518 53 249 2.0 3.0 0.00 0.00 0.00 49 1021.4
20260503120106 54 277 1.0 3.0 0.00 0.00 0.00 47 1021.6
20260503110526 54 263 1.0 3.0 0.00 0.00 0.00 48 1021.9
20260503110106 54 263 1.0 3.0 0.00 0.00 0.00 48 1021.9
20260503081550 56 248 2.0 4.0 0.00 0.00 0.00 45 1021.7
20260503081017 56 249 2.0 4.0 0.00 0.00 0.00 45 1021.8
20260503080516 56 248 2.0 4.0 0.00 0.00 0.00 45 1021.8
20260503072516 56 242 3.0 5.0 0.00 0.00 0.00 46 1021.9
20260503072015 55 250 2.0 4.0 0.00 0.00 0.00 46 1021.9
20260503071610 55 250 2.0 4.0 0.00 0.00 0.00 46 1021.9
20260503071016 55 248 3.0 5.0 0.00 0.00 0.00 46 1021.9
20260503070516 55 250 3.0 5.0 0.00 0.00 0.00 47 1021.9
20260503060108 56 267 2.0 3.0 0.00 0.00 0.00 46 1022.0